Eden Prairie, MN

6:29 AM CDT on September 28, 2016 (GMT -0500)
Flying Cloud

Weather History for KFCM - January, 2013

Change the Weather History Date:

Saturday, January 19, 2013

  Actual Average Record
Temperature  
Mean Temperature 21 °F -  
Max Temperature 39 °F 21 °F 39 °F (2013)
Min Temperature 3 °F 6 °F -15 °F (2008)
Degree Days  
Heating Degree Days 44    
Moisture  
Dew Point 14 °F    
Average Humidity 70    
Maximum Humidity 92    
Minimum Humidity 54    
Precipitation  
Precipitation 0.00 in - - ()
Sea Level Pressure  
Sea Level Pressure 29.90 in    
Wind  
Wind Speed 11 mph (WNW)    
Max Wind Speed 32 mph    
Max Gust Speed 47 mph    
Visibility 10 miles    
Events      
Averages and records for this station are not official NWS values.
T = Trace of Precipitation, MM = Missing Value Source: NWS Daily Summary

Daily Weather History Graph

Daily Weather History Graph

Search for Another Location

Airport or City:

Trip Planner

Search our weather history database for the weather conditions in past years. The results will help you decide how hot, cold, wet, or windy it might be!

Date:

Astronomy

Jan. 19, 2013 Rise Set
Actual Time 7:45 AM CST 5:04 PM CST
Civil Twilight 7:12 AM CST 5:36 PM CST
Nautical Twilight 6:37 AM CST 6:12 PM CST
Astronomical Twilight 6:02 AM CST 6:47 PM CST
Moon 11:34 AM CST (1/19) 1:16 AM CST (1/19)
Length of Visible Light 10h 23m
Length of Day
9h 19m
First Quarter, 57% of the Moon is Illuminated
Jan 19
First Quarter
Jan 26
Full
Feb 3
Last Quarter
Feb 10
New
Feb 17
First Quarter

Hourly Weather History & Observations

Time (CST) Temp. Windchill Dew Point Humidity Pressure Visibility Wind Dir Wind Speed Gust Speed Precip Events Conditions
12:53 AM 30.9 °F - 27.0 °F 85% 29.79 in 10.0 mi Calm Calm - N/A   Clear
1:53 AM 28.9 °F - 26.1 °F 89% 29.77 in 10.0 mi Calm Calm - N/A   Clear
2:53 AM 28.0 °F 21.7 °F 25.0 °F 88% 29.78 in 9.0 mi South 5.8 mph - N/A   Partly Cloudy
3:53 AM 28.9 °F 22.8 °F 27.0 °F 92% 29.73 in 10.0 mi South 5.8 mph - N/A   Clear
4:53 AM 28.9 °F 22.8 °F 25.0 °F 85% 29.70 in 9.0 mi SSE 5.8 mph - N/A   Clear
5:53 AM 30.0 °F - 27.0 °F 88% 29.73 in 10.0 mi Calm Calm - N/A   Clear
6:53 AM 28.0 °F - 26.1 °F 92% 29.70 in 9.0 mi Calm Calm - N/A   Clear
7:53 AM 30.9 °F 25.2 °F 28.0 °F 89% 29.72 in 10.0 mi West 5.8 mph - N/A   Mostly Cloudy
8:53 AM 33.1 °F 28.7 °F 28.0 °F 82% 29.74 in 10.0 mi West 4.6 mph - N/A   Overcast
9:53 AM 36.0 °F 29.0 °F 28.0 °F 73% 29.75 in 10.0 mi West 9.2 mph - N/A   Overcast
10:53 AM 37.0 °F 29.3 °F 28.0 °F 70% 29.76 in 10.0 mi WNW 11.5 mph - N/A   Mostly Cloudy
11:53 AM 37.9 °F 30.5 °F 28.9 °F 70% 29.76 in 10.0 mi West 11.5 mph - N/A   Partly Cloudy
12:46 PM 39.2 °F 29.0 °F 28.4 °F 65% 29.73 in 10.0 mi WNW 21.9 mph 33.4 mph N/A   Mostly Cloudy
12:53 PM 39.0 °F 32.3 °F 28.9 °F 67% 29.75 in 10.0 mi WNW 10.4 mph 28.8 mph N/A   Mostly Cloudy
1:22 PM 39.2 °F 30.5 °F 28.4 °F 65% 29.73 in 10.0 mi West 16.1 mph 27.6 mph N/A   Overcast
1:53 PM 39.0 °F 31.4 °F 28.9 °F 67% 29.75 in 10.0 mi West 12.7 mph 27.6 mph N/A   Overcast
2:07 PM 39.2 °F 29.6 °F 28.4 °F 65% 29.73 in 10.0 mi West 19.6 mph 28.8 mph N/A   Overcast
2:45 PM 32.0 °F 20.1 °F 21.2 °F 64% 29.77 in 10.0 mi WNW 19.6 mph 29.9 mph N/A   Mostly Cloudy
2:53 PM 32.0 °F 19.2 °F 21.0 °F 64% 29.81 in 10.0 mi WNW 23.0 mph 31.1 mph N/A   Scattered Clouds
3:53 PM 21.0 °F 3.6 °F 9.0 °F 60% 29.90 in 10.0 mi WNW 26.5 mph 41.4 mph N/A   Scattered Clouds
4:04 PM 19.4 °F -0.0 °F 6.8 °F 58% 29.88 in 10.0 mi WNW 32.2 mph 47.2 mph N/A   Mostly Cloudy
4:25 PM 17.6 °F -1.9 °F 5.0 °F 58% 29.90 in 10.0 mi NW 29.9 mph 42.6 mph N/A   Scattered Clouds
4:53 PM 17.1 °F -3.2 °F 3.0 °F 54% 29.97 in 10.0 mi WNW 32.2 mph 41.4 mph N/A   Scattered Clouds
5:53 PM 12.9 °F -7.6 °F -0.9 °F 54% 30.04 in 10.0 mi WNW 27.6 mph 47.2 mph N/A   Mostly Cloudy
6:53 PM 10.0 °F -10.4 °F -2.9 °F 56% 30.10 in 10.0 mi WNW 24.2 mph 39.1 mph N/A   Clear
7:23 PM 8.6 °F -11.9 °F -2.2 °F 62% 30.07 in 10.0 mi WNW 23.0 mph 32.2 mph N/A   Mostly Cloudy
7:53 PM 7.0 °F -11.6 °F -2.0 °F 67% 30.15 in 10.0 mi WNW 17.3 mph 29.9 mph N/A   Overcast
8:24 PM 6.8 °F -15.1 °F -5.8 °F 56% 30.13 in 10.0 mi NW 25.3 mph 35.7 mph N/A   Scattered Clouds
8:35 PM 6.8 °F -14.7 °F -5.8 °F 56% 30.14 in 10.0 mi WNW 24.2 mph 34.5 mph N/A   Mostly Cloudy
8:53 PM 6.1 °F -14.3 °F -5.1 °F 60% 30.20 in 10.0 mi WNW 20.7 mph 28.8 mph N/A   Mostly Cloudy
9:53 PM 3.9 °F -16.1 °F -5.1 °F 66% 30.24 in 10.0 mi WNW 18.4 mph 24.2 mph N/A   Mostly Cloudy
10:53 PM 3.9 °F -13.0 °F -4.0 °F 70% 30.25 in 8.0 mi WNW 12.7 mph 19.6 mph N/A   Overcast
11:32 PM 3.2 °F -14.6 °F -5.8 °F 66% 30.20 in 10.0 mi NW 13.8 mph 18.4 mph N/A   Scattered Clouds
11:53 PM 3.9 °F -10.4 °F -6.0 °F 64% 30.27 in 10.0 mi WNW 9.2 mph 21.9 mph N/A   Clear